Regional Weather Roundup
Issued by NWS

Home | Current Version | Previous Version | Text Only | Print | Product List | Glossary On
Versions: 1 2 3 4 5 6 7 8 9 10 11 12 13 14 15 16 17 18 19 20 21 22 23 24 25 26 27 28 29 30 31 32 33 34 35 36 37 38 39 40 41 42 43 44 45 46 47 48 49 50
000
ASUS45 KCYS 090810
RWRWY

WYOMING REGIONAL WEATHER ROUNDUP
NATIONAL WEATHER SERVICE CHEYENNE WY
100 AM MST FRI DEC 09 2016

NOTE:  "FAIR" INDICATES FEW OR NO CLOUDS BELOW 12,000 FEET
WITH NO SIGNIFICANT WEATHER AND/OR OBSTRUCTIONS TO VISIBILITY.

WYZ001-090900-
YELLOWSTONE NATIONAL PARK

CITY           SKY/WX    TMP DP  RH WIND       PRES   REMARKS
LK YELLOWSTONE   N/A      7   5  91 CALM      29.95F
W YELLOWSTONE  NOT AVBL

$$
WYZ002>013-054>058-071-098>099-090900-
NORTHERN WYOMING

CITY           SKY/WX    TMP DP  RH WIND       PRES   REMARKS
JACKSON        CLOUDY    14  12  92 SW8       30.02F WCI   3
CODY           FAIR       1  -4  79 CALM      30.08F
GREYBULL       CLOUDY     7   1  76 CALM      30.15F
WORLAND        FAIR       4  -1  80 CALM      30.13F
SHERIDAN       CLOUDY     2  -4  76 NW5       30.20F WCI  -8
BUFFALO        CLOUDY     0  -5  79 N7        30.09F WCI -13
GILLETTE       FAIR      -2  -7  79 E5        30.14F WCI -12
HULETT         FAIR      -2  -8  78 NE3       30.19F
NEWCASTLE      CLOUDY     9   0  66 S8        30.18F WCI  -4

$$
WYZ014>020-022>026-101>103-090900-
CENTRAL WYOMING

CITY           SKY/WX    TMP DP  RH WIND       PRES   REMARKS
BIG PINEY      LGT SNOW   9   5  84 N5        30.09F FOG     WCI   1
PINEDALE       LGT SNOW  10   9  92 N5        30.09S WCI   2
DUBOIS         PTSUNNY   18  10  73 N17G25    29.88F WCI   2
LANDER         FAIR       2  -3  80 CALM      30.02S
RIVERTON       FAIR       3  -2  79 NW3       30.02F
CASPER         FAIR      -7 -11  83 N3        30.02F
DOUGLAS        FAIR       6   1  80 E13       30.07F WCI -10

$$
WYZ021-027>030-104>119-090900-
SOUTHERN WYOMING

CITY           SKY/WX    TMP DP  RH WIND       PRES   REMARKS
EVANSTON       LGT SNOW  27  24  89 SW20      30.07F FOG     WCI  13
FORT BRIDGER   FLURRIES  11  10  93 CALM      30.10F
ROCK SPRINGS   FLURRIES  10   7  87 W9        30.09S WCI  -3
DIXON          CLOUDY    27  16  63 W9        30.15F WCI  18
RAWLINS        CLOUDY    26  16  65 W25G33    30.01F WCI  11
SARATOGA       CLOUDY    28  19  69 CALM      30.06F
LARAMIE        CLOUDY    24  18  77 S9        30.00F WCI  14
CHEYENNE       CLOUDY    12   4  70 S8        30.04F WCI   0
TORRINGTON     CLOUDY     8   1  73 E10       30.15F WCI  -6
PINE BLUFFS    FAIR      12   9  85 S7        30.15F WCI   2

$$



USA.gov is the U.S. government's official web portal to all federal, state and local government web resources and services.